DW6366 Weather Reports


Display with metric or nautical units.
time (UTC)temp
F
wind
direction
speed
MPH
gust
MPH
rain 1hr
in
rain 24hr
in
rain mn
in
humidity
%
barometer
mb
20260504181322 60 318 2.0 7.0 0.00 0.94 0.15 91 1012.5
20260504180333 60 5 1.0 5.0 0.00 0.94 0.15 91 1012.6
20260504175357 60 351 1.0 3.0 0.04 1.10 0.15 91 1012.6
20260504174330 60 357 0.0 4.0 0.08 1.10 0.15 91 1012.6
20260504173322 60 350 0.0 3.0 0.16 1.10 0.15 91 1012.6
20260504172334 60 346 0.0 7.0 0.20 1.10 0.15 92 1012.6
20260504171348 60 319 1.0 4.0 0.28 1.10 0.15 91 1012.7
20260504170340 60 315 0.0 2.0 0.31 1.10 0.15 91 1012.7
20260504160339 61 33 0.0 1.0 0.35 0.87 0.09 89 1012.7
20260504150339 64 144 3.0 9.0 0.04 0.51 0.02 86 1012.5
20260504140324 65 1 0.0 0.0 0.00 0.51 0.01 80 1012.9
20260504130324 68 92 1.0 5.0 0.00 0.71 0.01 73 1012.9
20260504110348 68 186 1.0 5.0 0.00 0.79 0.01 75 1013.2
20260504100347 67 221 1.0 4.0 0.00 1.02 0.01 79 1013.4
20260504081340 59 247 0.0 2.0 0.00 1.26 0.01 96 1013.3
20260504080323 59 290 0.0 0.0 0.00 1.26 0.01 96 1013.2
20260504070334 58 223 1.0 2.0 0.00 1.26 0.01 96 1012.7
20260504050416 54 135 0.0 0.0 0.00 1.26 0.01 95 1011.8
20260504045337 53 134 0.0 0.0 0.00 1.26 0.01 95 1011.6
20260504044328 53 134 0.0 0.0 0.00 1.26 0.01 95 1011.6
20260504043339 53 134 0.0 0.0 0.00 1.26 0.01 95 1011.6
20260504042347 53 135 0.0 0.0 0.00 1.26 0.01 95 1011.6
20260504041337 53 149 0.0 0.0 0.00 1.26 0.01 95 1011.6
20260504040342 53 150 0.0 0.0 0.00 1.26 0.01 95 1011.7
20260504035332 52 150 0.0 0.0 0.00 1.30 0.01 95 1011.7
20260504034340 52 150 0.0 0.0 0.00 1.30 0.01 95 1011.7
20260504033325 52 150 0.0 0.0 0.00 1.30 0.01 95 1011.7
20260504032335 52 150 0.0 0.0 0.00 1.30 0.01 95 1011.8
20260504031338 52 150 0.0 2.0 0.00 1.30 0.01 95 1011.8
20260504030334 51 150 0.0 2.0 0.00 1.30 0.01 95 1012.0
20260504025338 51 148 0.0 1.0 0.00 1.42 0.01 95 1011.9
20260504024328 51 151 0.0 1.0 0.00 1.42 0.01 94 1011.7
20260504023323 51 152 0.0 0.0 0.00 1.42 0.01 94 1011.7
20260504022334 51 152 0.0 0.0 0.00 1.42 0.01 94 1011.7
20260504021329 51 152 0.0 0.0 0.00 1.42 0.01 94 1011.6
20260504020321 51 152 0.0 0.0 0.04 1.42 0.01 94 1011.6
20260504015334 51 152 0.0 0.0 0.04 1.46 0.01 94 1011.6
20260504014323 52 152 0.0 0.0 0.04 1.46 0.01 94 1011.5
20260504013334 52 152 0.0 0.0 0.04 1.46 0.01 94 1011.6
20260504012343 52 152 0.0 0.0 0.04 1.46 0.01 94 1011.6
20260504011339 53 152 0.0 0.0 0.04 1.46 0.01 94 1011.5
20260504010354 53 152 0.0 0.0 0.00 1.42 0.00 94 1011.4
20260504005335 53 152 0.0 0.0 0.00 1.42 0.00 94 1011.4
20260504004326 53 152 0.0 0.0 0.00 1.42 0.00 94 1011.5
20260504003335 53 152 0.0 0.0 0.00 1.42 0.00 94 1011.4
20260504002347 54 152 0.0 0.0 0.00 1.42 0.00 94 1011.4
20260504001332 54 152 0.0 0.0 0.00 1.42 0.00 94 1011.3
20260504000324 54 152 0.0 0.0 0.00 1.42 0.00 94 1011.5
20260503235317 55 152 0.0 0.0 0.00 1.42 0.00 94 1011.6
20260503234329 55 152 0.0 0.0 0.00 1.42 0.00 94 1011.6
20260503233329 55 152 0.0 1.0 0.00 1.42 0.00 94 1011.6
20260503232413 55 151 0.0 2.0 0.00 1.42 0.00 94 1011.6
20260503231352 55 141 2.0 3.0 0.00 1.42 0.00 94 1011.6
20260503230340 55 179 0.0 3.0 0.00 1.42 0.00 94 1011.7
20260503225330 54 197 0.0 0.0 0.00 1.42 0.00 94 1011.7
20260503224340 54 198 0.0 0.0 0.00 1.42 0.00 93 1011.6
20260503223332 54 213 0.0 2.0 0.00 1.42 0.00 94 1011.5
20260503222328 55 213 0.0 0.0 0.00 1.42 0.00 94 1011.6
20260503221338 55 213 0.0 0.0 0.00 1.42 0.00 93 1011.6
20260503220330 55 213 0.0 0.0 0.00 1.42 0.00 93 1011.7
20260503215341 55 213 0.0 1.0 0.00 2.13 0.28 93 1011.6
20260503214334 56 213 0.0 1.0 0.00 2.13 0.28 93 1011.4
20260503213322 56 213 0.0 3.0 0.00 2.13 0.28 93 1011.4
20260503212335 56 190 2.0 4.0 0.00 2.13 0.28 93 1011.6
20260503211327 56 226 1.0 3.0 0.00 2.13 0.28 93 1011.6
20260503210359 56 232 1.0 2.0 0.00 2.13 0.28 93 1011.4
20260503205331 57 233 0.0 2.0 0.00 2.52 0.28 93 1011.3
20260503204339 57 225 1.0 3.0 0.00 2.52 0.28 93 1011.3
20260503203331 57 198 2.0 4.0 0.00 2.52 0.28 93 1011.3
20260503202335 57 192 3.0 4.0 0.00 2.52 0.28 93 1011.6
20260503201348 57 130 2.0 4.0 0.00 2.52 0.28 93 1011.4
20260503200327 57 175 2.0 4.0 0.00 2.52 0.28 93 1011.3
20260503195330 58 140 2.0 4.0 0.00 2.52 0.28 93 1011.2
20260503194345 58 180 2.0 3.0 0.00 2.52 0.28 93 1011.2
20260503193357 58 136 1.0 3.0 0.00 2.52 0.28 92 1011.0
20260503192333 58 203 1.0 3.0 0.04 2.52 0.28 92 1011.0
20260503191323 58 173 1.0 3.0 0.08 2.52 0.28 92 1010.8
20260503190338 58 136 0.0 4.0 0.12 2.52 0.28 92 1010.7
20260503185324 58 150 0.0 0.0 0.20 2.52 0.28 92 1010.6
20260503184336 58 149 0.0 0.0 0.35 2.52 0.28 92 1010.3
20260503183328 59 149 1.0 3.0 0.35 2.52 0.28 92 1010.3
20260503182338 59 164 2.0 5.0 0.31 2.48 0.28 91 1010.4